GFSSGP_925_temp_000.txt.gz
Temp
24 22 24 27 31 32 33 33 33 33 32 32 32 31 32 31 30 30 26 25 25 25 25 22 22 22 21 21 20 21 21 19 18 17 17 17 17 17 17 17 17 17 17 17 17 18 18 18 18
24 24 26 32 31 33 34 33 33 33 32 31 31 30 30 31 30 30 28 25 25 25 24 23 22 22 21 21 21 21 20 19 18 17 17 17 17 17 17 16 16 17 17 17 17 18 18 18 18
25 26 32 32 33 33 33 33 33 33 32 32 32 30 31 30 28 28 27 25 25 25 24 23 22 22 22 21 20 20 19 18 18 17 17 17 17 17 17 16 16 16 17 17 17 17 18 18 18
27 30 32 31 33 33 32 33 33 33 32 32 32 31 29 28 28 27 26 25 25 25 24 23 22 22 20 20 19 19 19 18 18 17 17 17 17 16 16 16 16 16 16 17 17 18 18 18 18
28 32 32 32 32 32 33 33 32 32 33 33 31 31 30 27 26 25 25 25 25 25 24 23 21 21 20 20 18 18 18 17 17 17 17 17 17 17 16 16 16 16 16 16 16 17 17 18 18
31 32 31 32 33 33 33 33 32 33 34 32 30 31 30 27 26 25 24 24 24 24 22 22 21 20 20 19 18 17 17 17 16 16 16 16 16 16 16 16 16 16 16 16 16 16 17 17 18
30 32 31 32 32 32 32 33 32 33 33 32 31 30 30 28 26 24 24 23 22 22 22 21 21 20 19 19 18 17 17 16 16 15 14 15 15 15 16 16 16 16 16 16 16 16 17 17 17
32 32 31 32 32 32 33 32 33 32 32 30 30 30 30 29 24 23 24 24 23 22 22 21 20 20 19 19 17 17 17 16 14 13 14 14 14 15 16 15 16 16 16 16 16 16 16 17 17
32 31 31 32 32 33 34 32 33 31 32 30 30 30 29 26 24 25 25 25 24 23 22 21 20 19 18 18 17 16 15 13 13 13 13 13 15 16 16 16 16 15 15 16 16 16 16 16 17
31 31 31 33 33 33 34 33 33 30 30 29 29 28 25 25 25 26 26 26 24 23 22 21 19 18 17 17 17 16 15 14 12 13 13 13 14 15 16 16 15 15 15 16 16 16 16 16 18
31 30 32 33 33 33 33 33 32 31 32 31 31 31 27 26 26 26 26 25 24 22 22 21 18 17 16 17 17 17 14 14 14 13 13 13 13 14 14 16 16 16 15 16 16 17 17 18 17
30 32 32 33 33 32 32 32 31 31 32 31 31 31 28 27 27 26 25 24 24 22 21 20 18 17 16 16 17 16 15 15 14 15 13 14 15 15 14 14 16 17 16 16 16 19 18 17 17
31 32 32 33 32 32 31 31 31 32 32 31 30 29 28 28 27 25 24 23 22 22 20 19 18 17 16 15 16 15 15 16 15 14 14 14 15 13 14 14 15 16 16 16 16 17 18 17 17
32 32 32 32 32 32 31 32 30 33 31 30 29 29 28 28 26 24 23 22 22 21 20 19 18 17 16 16 15 15 15 15 16 14 14 14 14 13 13 15 14 14 16 17 17 18 18 17 18
31 30 31 31 32 31 31 30 30 32 30 29 28 28 28 27 25 24 23 22 21 21 19 19 18 17 16 16 16 16 16 15 16 16 15 15 15 14 13 14 15 17 16 16 17 16 17 18 18
30 31 31 33 31 31 30 29 31 32 29 29 29 28 27 26 25 24 22 21 21 20 19 18 18 18 17 17 16 16 16 15 14 14 15 15 15 15 14 14 15 15 15 16 17 18 19 19 19
31 30 31 31 32 31 30 30 32 32 30 30 30 28 27 26 24 23 22 21 21 20 19 19 18 18 17 17 17 17 16 16 15 14 14 15 15 15 15 15 15 15 16 16 17 19 19 19 19
30 30 31 30 31 30 31 30 31 32 31 29 29 28 27 26 25 23 22 21 21 20 19 18 18 18 17 18 18 17 16 15 14 14 14 13 14 15 15 15 15 15 16 16 16 18 20 20 20
31 30 30 31 31 30 30 31 31 31 32 31 30 28 27 26 25 23 21 21 20 20 19 19 19 18 17 19 19 18 17 15 14 14 13 13 14 15 15 16 15 16 17 17 17 18 19 18 18
30 29 30 31 31 30 30 30 31 31 31 31 30 28 27 26 25 23 21 21 21 21 20 19 19 19 18 19 18 17 17 16 14 14 13 13 13 14 14 15 16 16 17 16 17 18 18 18 18
30 29 30 29 30 30 30 29 31 31 31 31 29 29 28 26 25 23 22 21 21 21 20 20 19 19 18 17 19 17 16 16 15 14 14 14 14 14 14 15 16 16 17 17 17 18 18 18 16
29 30 29 29 29 28 29 28 30 31 31 32 31 29 28 26 25 24 23 22 22 21 20 20 20 19 19 18 19 18 17 19 17 15 15 14 14 14 14 15 16 16 18 16 16 17 18 18 16
29 31 29 29 29 28 29 28 30 32 30 31 32 31 28 27 25 24 23 22 22 21 21 20 20 19 19 18 18 19 19 17 16 17 15 15 15 14 14 14 14 15 15 16 16 16 18 18 16
30 29 29 28 29 27 29 29 30 31 31 32 32 31 29 27 25 25 23 22 22 21 21 20 20 20 19 19 18 18 16 16 15 16 16 16 15 15 15 14 14 15 15 16 17 17 17 17 17
30 28 27 27 27 27 29 28 30 31 32 32 32 31 28 26 26 25 24 23 22 22 21 21 21 20 20 20 19 18 18 16 15 14 14 15 15 15 14 14 14 15 15 15 16 17 17 17 17
29 29 28 26 27 29 28 28 30 32 32 31 30 30 28 26 26 25 24 23 23 22 21 21 21 21 20 20 19 18 18 19 16 15 15 16 15 15 15 14 15 15 16 15 16 16 16 16 15
29 28 30 28 29 27 29 30 31 32 32 31 29 27 26 26 25 25 24 23 23 22 21 21 21 21 20 20 19 19 18 18 17 17 16 15 15 15 14 15 15 15 15 16 16 16 16 15 16
31 30 27 28 26 26 29 29 30 31 31 30 28 27 26 26 26 25 25 23 23 22 21 21 21 21 20 20 19 19 19 19 18 18 18 17 16 16 15 14 15 15 16 16 16 16 16 15 15
29 29 29 29 29 28 27 29 31 31 31 31 30 28 26 26 26 26 25 23 23 22 22 21 21 21 20 20 20 19 19 19 19 19 19 17 16 16 16 16 16 15 15 15 16 16 16 16 15
30 29 29 28 27 28 29 30 32 31 31 31 30 28 28 27 27 27 26 24 23 23 22 21 21 21 21 20 20 19 19 19 19 19 19 19 18 17 15 15 15 15 15 16 16 17 17 17 16

GFSSGP_925_temp_003.txt.gz
Temp
26 25 28 30 32 34 35 36 36 36 36 35 35 34 34 34 33 31 29 29 28 28 27 24 22 22 21 21 20 20 19 18 18 18 18 17 17 17 17 17 17 17 17 18 18 18 18 18 18
27 27 29 32 33 34 35 36 35 36 36 35 34 34 34 33 33 33 31 28 28 28 26 26 23 23 23 21 20 20 18 18 18 18 17 17 17 17 17 17 17 17 17 17 18 18 18 18 18
28 29 32 34 34 35 35 36 36 36 35 35 34 34 33 32 32 32 29 28 28 27 27 25 24 23 22 21 20 20 20 19 18 18 18 17 17 17 17 17 17 17 17 17 18 18 18 18 18
29 32 33 33 34 35 34 35 35 35 36 35 35 34 33 31 31 30 29 28 28 28 28 25 24 23 22 20 19 19 19 18 18 18 18 18 17 17 17 16 17 17 17 17 17 17 17 18 18
30 33 33 33 34 36 35 36 35 35 35 35 35 33 33 30 29 29 28 28 28 28 27 26 23 22 22 20 18 18 18 18 17 17 17 17 17 17 17 17 16 16 16 17 17 17 17 17 18
33 34 33 34 35 35 36 35 35 35 35 35 34 33 33 31 29 29 28 27 27 26 25 24 23 22 21 19 18 18 18 17 17 16 16 16 16 16 16 17 17 16 16 16 17 17 16 17 18
32 33 33 34 34 35 35 35 34 35 35 35 35 32 33 32 30 28 27 26 25 25 24 24 23 22 21 20 19 18 18 17 17 17 15 14 15 15 15 16 16 16 16 16 16 16 16 16 17
33 33 33 34 34 34 36 35 36 34 34 35 34 32 32 32 29 27 27 27 26 25 25 24 24 23 22 21 19 18 17 16 15 15 14 14 14 14 15 15 16 16 16 16 16 16 16 16 17
35 32 33 34 34 35 36 35 36 35 34 34 34 33 32 30 28 28 28 28 28 26 25 24 23 22 21 20 20 18 17 16 15 15 15 14 15 17 17 17 17 16 16 16 16 16 16 16 16
33 32 33 35 35 34 35 35 35 35 34 33 33 32 29 29 29 29 29 29 28 27 26 24 22 20 19 20 20 19 18 16 15 14 13 14 15 15 16 16 15 15 15 16 16 16 16 16 19
33 32 34 34 34 35 34 35 36 34 33 34 33 33 31 30 29 29 30 29 27 26 25 24 21 19 18 19 19 18 18 15 14 14 14 13 13 16 16 16 17 16 15 16 16 17 17 19 19
33 33 34 34 34 35 34 35 34 34 34 35 34 34 33 31 30 29 29 28 27 25 24 22 21 19 18 18 19 19 18 15 16 15 14 14 15 15 15 15 16 16 16 16 16 17 19 19 20
33 33 33 35 35 35 35 34 34 34 35 34 34 33 32 32 30 29 28 27 25 24 23 22 20 19 18 17 18 18 16 15 17 17 16 15 15 15 15 16 16 17 17 16 16 18 20 20 19
34 34 34 34 35 34 33 34 33 34 34 33 33 33 32 31 30 29 26 26 24 23 22 21 20 19 18 18 17 16 16 16 17 18 16 15 15 14 14 15 16 16 17 16 16 18 20 19 18
34 33 34 34 34 34 34 32 33 34 34 33 32 31 31 32 30 28 26 25 24 23 22 21 20 19 19 18 18 17 16 16 17 17 16 16 15 14 14 15 16 15 16 16 17 17 18 17 18
33 33 32 34 34 34 33 31 34 34 34 33 32 33 32 31 30 28 26 24 23 22 22 21 21 20 20 19 18 17 17 16 16 15 15 15 15 15 14 15 16 15 15 16 16 19 18 18 19
32 31 32 33 35 34 33 31 34 35 34 33 33 33 32 31 28 27 25 24 23 22 22 21 20 20 19 19 19 19 17 16 15 15 15 15 15 16 15 15 15 16 15 16 18 19 19 19 19
31 32 33 33 35 34 33 32 34 34 34 33 33 32 32 30 29 26 25 24 23 22 21 21 20 20 19 20 19 19 17 16 15 15 15 15 15 15 16 15 15 15 15 16 16 17 18 20 20
33 33 33 34 35 34 33 32 33 34 34 33 33 33 32 30 29 26 24 23 23 22 21 21 21 20 19 21 21 20 18 19 17 15 14 14 14 15 16 15 15 16 16 16 17 18 19 19 20
33 32 32 33 34 33 32 32 33 33 34 34 34 33 32 30 29 27 24 23 23 22 22 21 21 20 20 21 20 19 17 18 18 17 15 15 15 15 16 16 17 17 16 16 17 18 18 19 18
33 32 32 32 33 33 32 31 33 34 34 34 34 33 32 30 28 26 25 23 23 23 22 22 21 20 19 20 21 20 19 17 17 17 17 15 15 15 15 16 18 17 18 17 17 18 19 19 18
32 33 32 32 31 30 33 30 32 33 33 34 33 33 32 31 29 27 25 24 23 23 22 22 21 21 20 19 20 20 18 18 18 17 16 15 15 15 16 16 17 18 19 20 18 18 18 18 17
32 33 33 32 30 30 31 30 32 34 33 33 34 34 33 31 29 27 26 24 24 23 22 22 21 21 20 20 19 20 19 18 16 16 16 15 15 15 16 16 17 18 18 19 18 18 18 19 19
33 32 32 31 30 29 31 31 32 33 33 33 34 34 32 31 29 27 26 24 24 23 23 22 22 21 21 21 20 19 18 18 18 17 17 17 15 15 15 16 16 17 17 17 17 18 17 18 17
32 31 29 28 29 29 32 31 32 33 34 34 33 33 32 30 28 27 26 25 24 24 23 22 22 22 21 21 20 19 20 18 17 16 16 17 16 15 15 15 15 16 16 17 17 17 17 17 17
31 31 30 27 29 31 32 30 32 34 34 34 33 33 31 29 28 27 26 26 25 24 23 23 22 22 22 21 20 20 20 19 17 17 16 16 15 15 15 15 15 16 17 17 16 16 17 17 17
32 30 32 30 31 30 32 33 33 33 33 33 33 31 30 29 28 27 27 26 25 24 23 23 23 22 22 21 20 20 20 19 17 17 17 16 15 15 15 16 16 16 16 16 16 16 17 17 16
33 33 30 31 27 27 31 31 32 32 33 32 32 31 29 28 28 28 27 25 25 24 23 23 22 22 22 21 21 21 20 20 19 19 18 17 16 16 16 16 16 16 16 16 16 16 16 16 15
32 32 31 31 31 29 29 31 33 33 33 32 32 31 29 29 28 28 27 25 25 24 24 23 23 22 22 21 21 21 21 20 20 20 19 17 17 16 16 17 17 16 16 16 17 16 16 16 15
33 32 32 30 29 30 31 32 34 33 33 33 32 31 30 30 29 29 28 26 26 25 24 23 23 23 22 22 21 21 21 20 20 20 19 18 17 16 16 16 16 17 17 17 17 18 17 15 15

GFSSGP_925_temp_006.txt.gz
Temp
26 26 25 31 30 32 34 35 36 36 35 36 36 35 34 34 32 30 30 30 29 27 25 24 24 23 23 22 21 20 20 19 18 18 18 18 17 17 18 17 17 17 17 17 18 18 18 18 18
26 28 29 32 30 32 34 36 35 36 36 36 35 35 34 33 34 33 31 30 29 28 26 24 24 24 23 22 21 20 19 18 18 18 18 17 17 17 17 17 17 17 17 17 18 18 18 18 18
27 30 31 32 32 33 34 35 36 36 37 35 35 35 34 31 32 32 30 29 29 28 27 26 24 24 23 22 20 19 19 18 18 18 18 18 17 17 17 17 17 17 17 17 18 18 18 18 18
29 32 32 32 33 36 35 36 36 35 36 36 35 34 33 32 32 31 30 29 29 29 28 25 24 23 23 21 20 19 19 18 18 18 18 18 18 17 17 17 17 17 17 17 17 18 17 17 17
31 33 32 33 34 34 35 36 36 35 36 36 35 34 32 31 31 30 29 29 29 29 27 25 24 23 22 21 19 19 18 18 18 17 17 17 17 16 17 17 17 17 17 17 17 17 17 17 17
31 33 31 33 35 36 36 36 36 35 36 36 35 34 32 31 30 30 29 29 28 27 26 25 23 22 22 21 21 19 19 18 17 17 16 16 16 16 16 16 16 17 17 17 17 17 17 17 16
31 32 32 33 34 35 36 36 35 35 35 35 35 33 33 31 31 30 29 28 27 26 25 24 24 23 22 21 20 19 19 18 17 17 16 15 15 15 15 16 16 16 17 16 16 17 17 16 16
32 32 32 33 33 34 36 36 36 36 35 36 35 32 32 32 30 29 29 28 27 26 26 25 24 24 23 21 20 19 18 18 17 16 15 14 14 14 15 15 15 16 16 16 16 16 16 16 16
34 31 31 33 34 35 37 36 37 37 35 35 35 34 33 31 30 29 29 29 29 28 27 26 25 23 22 21 21 19 19 18 16 16 15 15 15 15 16 17 16 16 16 16 16 16 16 16 16
32 31 32 34 35 35 35 35 35 35 35 34 34 34 32 31 30 30 30 29 29 28 27 26 24 22 20 20 21 20 19 18 17 16 15 14 14 15 16 16 16 16 16 16 16 16 16 16 16
33 32 33 34 35 35 35 35 35 35 34 35 34 34 32 31 31 30 31 31 27 26 26 25 22 21 19 19 19 19 19 18 16 16 15 15 14 14 15 16 16 16 15 15 15 16 16 16 17
32 34 34 35 35 34 34 35 34 35 35 35 35 34 33 31 30 30 30 30 27 27 25 24 22 20 19 18 18 19 19 18 17 16 16 15 15 15 15 16 16 15 15 16 16 16 17 17 18
33 34 35 35 34 34 35 34 34 34 35 36 35 34 33 32 31 30 29 29 26 25 24 23 21 20 19 18 18 18 18 17 17 16 16 15 15 15 15 16 15 16 16 16 16 16 17 18 19
34 34 34 34 34 35 34 34 34 35 35 34 34 33 33 32 31 29 29 27 26 25 24 22 21 20 19 19 18 17 17 16 16 17 17 17 16 15 15 15 15 16 16 16 16 17 17 18 19
34 32 33 34 34 34 35 33 33 35 35 34 34 34 33 33 32 30 28 26 25 24 23 22 21 20 20 19 19 18 17 17 16 16 16 16 15 15 15 15 15 16 16 16 16 17 17 18 19
32 32 32 34 34 35 34 31 34 35 35 34 34 34 33 32 32 30 28 26 24 23 23 22 21 21 20 20 19 18 18 17 16 16 16 16 16 15 15 15 15 15 15 16 16 16 17 18 18
31 30 31 33 35 35 35 32 34 35 35 34 34 34 33 33 31 29 28 25 24 23 23 22 21 20 20 19 20 19 18 17 17 16 16 16 15 15 15 16 16 16 16 16 16 17 17 18 18
29 31 32 32 34 35 34 33 34 34 34 34 33 34 33 32 30 28 27 25 24 23 22 21 21 20 20 20 20 19 18 17 17 16 16 15 15 15 15 16 16 16 16 16 16 17 18 18 18
31 32 32 34 36 33 33 33 34 35 34 34 34 34 33 32 30 28 26 25 24 23 22 21 21 21 20 20 20 20 18 18 17 16 15 15 15 15 15 16 16 16 16 17 17 17 18 18 19
31 31 32 34 35 34 34 34 34 34 34 34 34 33 33 31 29 27 25 24 23 22 22 22 21 21 20 20 20 19 19 18 18 17 16 15 15 15 15 16 16 17 17 17 17 18 17 18 18
31 31 32 32 34 34 33 32 33 34 35 35 35 34 34 30 29 26 25 24 23 23 22 22 21 21 20 20 20 20 19 18 18 17 16 16 15 15 16 16 16 17 17 17 17 17 18 17 18
30 33 33 33 32 30 33 30 32 33 34 35 34 34 33 30 29 27 25 24 23 23 23 22 21 21 20 20 20 19 18 17 17 17 16 16 16 16 16 16 17 17 17 18 18 17 17 16 17
32 34 34 33 32 31 31 30 31 33 33 34 34 34 32 31 29 27 26 24 24 24 23 22 21 21 20 20 19 19 19 17 17 17 17 16 16 16 16 16 17 18 18 18 18 18 17 18 17
34 33 33 33 32 30 31 30 31 32 33 34 34 34 32 31 29 27 26 25 24 24 23 22 22 21 21 21 20 19 18 17 17 17 17 16 16 16 16 16 17 17 17 18 18 18 18 18 18
33 32 29 28 29 28 31 31 31 34 34 34 34 33 32 31 29 27 26 25 24 24 23 22 22 21 21 21 20 20 18 17 17 17 17 16 16 16 16 16 16 16 17 17 17 18 19 18 17
33 32 30 27 28 29 33 30 32 34 34 34 34 33 31 30 28 27 26 25 25 24 23 23 22 22 22 21 20 20 18 18 17 17 16 16 16 15 16 16 16 17 17 17 18 18 18 16 16
32 31 33 30 31 30 32 32 34 34 34 34 34 32 30 29 27 27 26 26 25 24 23 23 23 22 22 21 20 20 19 18 17 17 17 16 16 16 16 16 16 16 16 18 18 18 17 16 16
33 34 30 30 28 27 30 31 32 32 33 33 32 31 29 29 28 27 26 26 25 24 23 23 23 22 22 21 21 21 20 19 18 18 17 17 16 16 16 16 16 16 17 17 17 16 16 16 16
32 32 32 31 31 29 28 31 33 33 32 30 30 31 29 28 28 27 27 26 25 24 23 23 23 23 22 21 21 21 20 20 19 18 17 17 17 17 17 17 16 17 17 17 17 16 16 16 15
33 32 32 30 29 31 31 31 33 33 33 32 31 31 29 29 29 28 27 26 26 24 24 23 23 23 22 22 21 21 21 20 19 18 17 17 17 16 17 17 17 17 17 17 18 16 16 15 15

GFSSGP_925_temp_009.txt.gz
Temp
27 26 25 24 24 25 25 30 33 33 32 32 32 32 31 29 29 24 29 29 28 26 25 25 25 24 24 23 22 21 20 19 19 18 17 17 17 18 18 17 17 17 17 17 17 18 18 18 18
27 25 24 25 25 24 26 30 32 32 32 32 33 32 29 29 29 27 28 28 28 27 26 25 25 25 24 23 22 21 20 19 18 18 18 17 17 17 17 17 17 17 17 17 17 18 18 18 18
26 26 25 25 24 25 28 29 33 33 33 33 33 32 31 29 29 28 29 29 28 28 27 26 25 24 23 23 22 20 19 19 19 18 18 18 17 17 17 17 17 17 17 17 17 17 18 18 18
25 26 26 25 25 28 32 31 34 33 34 32 32 30 30 31 30 29 29 29 29 27 26 25 24 23 22 21 20 19 19 18 18 18 18 18 17 17 17 17 17 17 17 17 17 17 18 18 17
25 25 24 25 27 30 33 33 33 33 33 33 33 30 27 30 30 30 29 29 28 27 26 25 24 23 22 21 21 19 19 18 18 17 17 17 17 17 17 17 17 17 17 17 17 17 17 17 17
25 25 24 25 28 32 32 31 32 33 33 32 31 28 27 30 30 29 29 29 28 26 25 24 23 23 23 22 22 21 20 19 18 18 17 16 16 16 16 16 16 17 17 17 17 16 17 17 16
24 24 25 27 29 31 33 32 32 33 33 32 32 31 27 28 30 29 29 28 27 26 25 25 24 24 23 22 21 20 20 19 19 18 17 16 15 15 15 15 16 16 16 16 17 16 17 17 16
27 25 26 28 28 29 33 34 33 32 33 33 32 31 26 26 30 29 28 27 27 26 26 25 24 24 22 21 21 20 19 19 18 17 16 15 14 14 14 15 15 15 16 16 17 16 16 16 16
29 25 26 27 29 30 31 32 34 34 34 34 32 31 29 30 29 28 28 27 27 26 26 25 23 22 21 20 19 20 19 19 18 16 16 16 15 15 15 15 15 15 16 16 16 16 16 16 16
27 26 27 30 30 30 31 31 32 32 32 32 31 29 29 29 28 26 26 27 27 26 25 25 24 23 22 21 20 19 19 18 17 17 17 16 15 15 15 15 16 16 16 16 16 15 16 16 16
29 27 29 30 32 32 31 31 32 32 31 33 30 28 27 27 27 26 27 28 26 26 24 24 23 22 21 20 19 19 19 19 18 17 16 16 16 15 15 15 16 16 16 16 16 15 16 16 16
28 29 30 31 32 32 31 31 31 32 31 34 31 29 27 26 25 25 27 27 26 25 24 23 22 21 20 19 18 18 18 17 17 17 16 16 16 15 15 15 15 15 16 15 15 15 16 16 16
29 30 31 32 32 31 31 31 31 32 32 34 32 30 26 25 25 28 29 26 25 24 23 22 21 20 19 19 18 18 18 18 17 17 16 16 16 15 15 15 15 15 15 15 15 15 16 16 17
30 30 31 32 32 31 31 32 32 32 33 33 32 30 28 27 25 26 26 25 25 24 23 22 21 20 20 19 19 18 18 17 17 17 16 16 16 15 15 15 15 15 15 16 16 16 16 16 17
29 29 30 31 31 31 32 30 31 31 32 31 30 29 28 27 26 25 26 25 25 24 23 22 21 21 20 20 19 18 18 17 17 17 16 16 16 16 16 15 15 15 15 16 16 16 16 17 17
27 28 27 29 30 32 31 29 31 31 30 30 30 29 29 26 26 26 26 25 24 24 23 22 21 21 20 20 19 19 19 18 17 16 16 16 16 16 16 15 15 15 15 15 16 16 16 17 18
26 25 26 28 31 31 30 30 31 31 31 29 29 28 29 26 24 24 25 25 24 24 22 22 21 21 20 20 20 19 19 18 17 17 16 16 16 16 15 15 16 15 15 15 16 16 16 16 17
25 25 28 28 30 31 30 30 30 30 30 29 28 28 28 25 24 23 24 24 23 23 22 21 21 20 20 20 20 19 18 18 17 17 16 15 15 15 15 15 16 16 15 15 16 16 16 17 17
27 27 27 29 31 31 30 30 30 29 30 29 27 27 26 25 22 23 23 23 23 22 22 21 21 20 20 20 20 19 19 18 18 17 16 16 15 15 15 15 16 16 16 16 16 16 16 17 18
27 27 27 29 31 30 30 29 30 30 30 28 28 27 26 22 22 22 21 23 23 22 22 21 21 21 20 20 19 19 19 18 18 17 16 16 16 15 15 15 16 16 16 16 16 16 17 17 18
27 27 27 27 30 30 30 28 29 31 31 30 29 28 24 23 22 21 21 21 22 22 22 21 21 21 20 20 20 19 19 18 18 18 17 16 16 15 15 16 16 17 17 17 17 17 17 17 18
26 29 29 29 28 26 31 24 28 29 28 29 30 25 24 23 22 21 20 19 22 22 22 22 21 21 20 20 19 19 18 17 17 17 17 16 16 16 16 16 16 17 18 18 17 18 18 18 17
28 30 29 29 28 27 28 25 26 29 28 28 29 25 24 23 22 21 20 21 22 23 22 21 21 20 20 20 19 19 18 17 17 17 17 16 16 16 16 16 17 17 17 18 18 18 18 18 17
30 29 29 29 28 24 26 25 27 26 29 30 32 29 24 23 22 21 21 22 23 22 22 22 21 21 20 20 20 19 18 17 17 17 16 16 16 16 16 16 17 17 17 18 18 18 18 18 18
29 27 25 23 24 22 28 27 27 27 29 30 26 25 24 23 22 21 20 20 21 22 22 22 21 21 21 20 20 19 18 17 17 17 16 16 16 15 16 16 16 17 17 18 18 18 18 18 18
28 28 25 23 22 25 28 26 28 29 30 28 28 26 24 23 22 21 20 20 21 22 22 22 21 21 21 20 20 19 18 18 17 16 16 16 15 16 16 16 17 17 17 17 18 18 18 18 18
28 27 28 26 27 25 26 28 30 30 29 27 26 25 23 22 21 20 20 21 22 22 22 22 21 22 21 20 20 19 19 18 17 16 16 16 16 16 16 16 16 17 17 18 18 18 17 17 17
30 29 27 23 24 23 26 26 26 27 28 27 25 24 22 21 21 21 20 20 22 23 23 23 22 22 21 21 20 20 19 19 18 17 17 16 16 16 16 16 16 16 17 18 18 17 16 16 15
29 28 27 25 24 22 23 23 26 27 27 25 25 24 23 22 21 21 20 22 23 23 23 23 22 22 21 21 21 20 19 19 18 17 17 17 17 17 16 16 16 17 17 18 18 17 16 15 14
30 27 25 26 24 25 23 24 27 26 26 25 25 25 22 22 21 21 20 21 21 22 23 23 22 22 22 21 21 20 19 19 18 17 17 17 17 17 17 17 17 17 17 18 17 16 16 16 14